sat.trackr.live / text

‹ back to catalog

STARLINK-30607

NORAD 58099 · 2023-161C

PAYLOAD ACTIVE UNKNOWN

§ Identity

Operator
Country
US
Launch date
2023-10-21
Launch site
AFWTR
Launch vehicle
Mass (kg)
RCS (m²)

Purposes: comms

External: N2YO · Heavens-Above · Gunter

§ Orbital elements

Epoch: 2026-09-20T20:57:56.507616Z

Period
93.85 min
Inclination
53.1607°
Eccentricity
0.0001045
Mean motion
15.34394633 rev/d
Perigee alt
462.0 km
Apogee alt
463.4 km
Semi-major
6,840.9 km
B*
3.1360e-5
RAAN
327.6185°
Arg perigee
91.0668°
Mean anomaly
269.0454°
Rev number
16,445

§ Raw data

STARLINK-306071 58099U 23161C   26263.87357069  .00000683  00000+0  31360-4 0  99912 58099  53.1607 327.6185 0001045  91.0668 269.0454 15.34394633164458

JSON: /api/v1/satellites/58099 · /tle

For live sub-satellite position, see the globe view (requires WebGL).

§ Visibility from observer

Set your observer location to see the next 7 days of passes ≥ 10°. The values pass through the URL so the page stays shareable.

No JS? Fill the form by hand. The geolocation button needs JavaScript.